| time (UTC) | temp F | wind direction | speed knots | gust knots | rain 1hr in | rain 24hr in | rain mn in | humidity % | barometer mb |
| 20260505210046 | 74 | 317 | 3.5 | 13.0 | 0.00 | 0.13 | 0.13 | 42 | 1009.7 |
| 20260505204550 | 73 | 285 | 3.5 | 7.8 | 0.00 | 0.13 | 0.13 | 42 | 1009.9 |
| 20260505203054 | 72 | 320 | 2.6 | 9.6 | 0.00 | 0.13 | 0.13 | 44 | 1010.1 |
| 20260505201546 | 71 | 67 | 0.9 | 5.2 | 0.00 | 0.13 | 0.13 | 48 | 1010.3 |
| 20260505200100 | 71 | 22 | 2.6 | 7.0 | 0.00 | 0.13 | 0.13 | 48 | 1010.4 |
| 20260505194555 | 70 | 102 | 0.9 | 7.8 | 0.00 | 0.13 | 0.13 | 50 | 1010.7 |
| 20260505193046 | 70 | 352 | 4.3 | 9.6 | 0.00 | 0.13 | 0.13 | 50 | 1010.9 |
| 20260505191543 | 71 | 277 | 3.5 | 7.0 | 0.00 | 0.13 | 0.13 | 48 | 1011.2 |
| 20260505190051 | 69 | 0 | 0.0 | 2.6 | 0.00 | 0.13 | 0.13 | 50 | 1011.5 |
| 20260505184549 | 69 | 0 | 1.7 | 6.1 | 0.00 | 0.13 | 0.13 | 52 | 1011.9 |
| 20260505183050 | 70 | 57 | 0.9 | 3.5 | 0.00 | 0.13 | 0.13 | 52 | 1011.8 |
| 20260505181546 | 69 | 0 | 0.0 | 4.3 | 0.00 | 0.13 | 0.13 | 51 | 1012.1 |
| 20260505180045 | 68 | 352 | 1.7 | 5.2 | 0.00 | 0.13 | 0.13 | 52 | 1012.2 |
| 20260505174546 | 68 | 169 | 2.6 | 6.1 | 0.00 | 0.13 | 0.13 | 56 | 1012.3 |
| 20260505173048 | 66 | 0 | 3.5 | 8.7 | 0.00 | 0.13 | 0.13 | 59 | 1012.4 |
| 20260505171546 | 65 | 0 | 0.9 | 8.7 | 0.00 | 0.13 | 0.13 | 59 | 1012.6 |
| 20260505170046 | 64 | 0 | 0.9 | 6.1 | 0.00 | 0.13 | 0.13 | 60 | 1012.6 |
| 20260505164546 | 64 | 138 | 4.3 | 7.8 | 0.00 | 0.13 | 0.13 | 63 | 1012.6 |
| 20260505163046 | 63 | 115 | 0.9 | 7.8 | 0.00 | 0.13 | 0.13 | 65 | 1012.7 |
| 20260505161545 | 63 | 0 | 0.9 | 5.2 | 0.00 | 0.13 | 0.13 | 62 | 1012.7 |
| 20260505153051 | 61 | 130 | 3.5 | 6.1 | 0.00 | 0.13 | 0.13 | 68 | 1012.8 |
| 20260505151546 | 59 | 119 | 0.9 | 6.1 | 0.00 | 0.13 | 0.13 | 72 | 1012.8 |
| 20260505124559 | 57 | 84 | 6.1 | 9.6 | 0.02 | 0.10 | 0.10 | 79 | 1011.5 |
| 20260505123045 | 57 | 80 | 4.3 | 7.8 | 0.02 | 0.09 | 0.09 | 77 | 1011.7 |
| 20260505121549 | 57 | 76 | 4.3 | 9.6 | 0.01 | 0.08 | 0.08 | 77 | 1011.5 |
| 20260505120053 | 58 | 117 | 4.3 | 9.6 | 0.01 | 0.08 | 0.08 | 79 | 1011.6 |
| 20260505114548 | 58 | 128 | 7.8 | 10.4 | 0.01 | 0.08 | 0.08 | 80 | 1011.7 |
| 20260505113045 | 58 | 104 | 2.6 | 6.1 | 0.01 | 0.07 | 0.07 | 80 | 1011.9 |
| 20260505111547 | 58 | 81 | 1.7 | 4.3 | 0.03 | 0.07 | 0.07 | 80 | 1012.2 |
| 20260505101547 | 58 | 0 | 0.0 | 1.7 | 0.03 | 0.04 | 0.04 | 82 | 1013.4 |
| 20260505100047 | 58 | 9 | 0.9 | 2.6 | 0.03 | 0.03 | 0.03 | 80 | 1013.4 |
| 20260505094544 | 58 | 0 | 0.0 | 2.6 | 0.02 | 0.02 | 0.02 | 79 | 1013.6 |
| 20260505093049 | 58 | 9 | 1.7 | 7.0 | 0.01 | 0.01 | 0.01 | 79 | 1013.5 |
| 20260505091550 | 59 | 338 | 2.6 | 9.6 | 0.01 | 0.01 | 0.01 | 79 | 1013.3 |
| 20260505090050 | 59 | 328 | 4.3 | 10.4 | 0.00 | 0.00 | 0.00 | 78 | 1013.5 |
| 20260505084549 | 60 | 327 | 7.0 | 11.3 | 0.00 | 0.00 | 0.00 | 75 | 1013.9 |
| 20260505083042 | 60 | 315 | 6.1 | 11.3 | 0.00 | 0.00 | 0.00 | 74 | 1013.9 |
| 20260505081553 | 60 | 340 | 2.6 | 7.0 | 0.00 | 0.00 | 0.00 | 76 | 1014.0 |
| 20260505080054 | 61 | 306 | 4.3 | 10.4 | 0.00 | 0.00 | 0.00 | 73 | 1013.9 |
| 20260505074548 | 61 | 323 | 6.1 | 11.3 | 0.00 | 0.00 | 0.00 | 70 | 1013.7 |
| 20260505073053 | 61 | 302 | 8.7 | 13.0 | 0.00 | 0.00 | 0.00 | 71 | 1013.7 |
| 20260505071546 | 61 | 315 | 7.8 | 11.3 | 0.00 | 0.00 | 0.00 | 71 | 1013.7 |
| 20260505070054 | 61 | 313 | 7.8 | 13.0 | 0.00 | 0.00 | 0.00 | 70 | 1014.0 |
| 20260505064549 | 62 | 296 | 7.0 | 13.0 | 0.00 | 0.00 | 0.00 | 67 | 1013.6 |
| 20260505063110 | 63 | 300 | 6.1 | 12.2 | 0.00 | 0.00 | 0.00 | 64 | 1013.4 |
| 20260505061546 | 63 | 316 | 6.1 | 12.2 | 0.00 | 0.00 | 0.00 | 65 | 1013.0 |
| 20260505060054 | 63 | 309 | 6.1 | 12.2 | 0.00 | 0.00 | 0.00 | 66 | 1013.4 |
| 20260505054602 | 63 | 309 | 4.3 | 11.3 | 0.00 | 0.00 | 0.00 | 63 | 1013.3 |
| 20260505053058 | 64 | 326 | 4.3 | 12.2 | 0.00 | 0.00 | 0.00 | 62 | 1013.0 |
| 20260505051549 | 64 | 11 | 6.1 | 13.0 | 0.00 | 0.00 | 0.00 | 63 | 1013.0 |
| 20260505041554 | 62 | 337 | 3.5 | 7.0 | 0.00 | 0.00 | 0.00 | 65 | 1014.2 |
| 20260505040054 | 63 | 29 | 1.7 | 11.3 | 0.00 | 0.00 | 0.00 | 64 | 1014.1 |
| 20260505034545 | 64 | 311 | 5.2 | 14.8 | 0.00 | 0.00 | 0.00 | 58 | 1014.2 |
| 20260505033046 | 66 | 304 | 7.8 | 13.9 | 0.00 | 0.00 | 0.00 | 56 | 1013.7 |
| 20260505031554 | 66 | 312 | 7.0 | 13.0 | 0.00 | 0.00 | 0.00 | 52 | 1013.4 |
| 20260505030043 | 65 | 360 | 5.2 | 15.6 | 0.00 | 0.00 | 0.00 | 53 | 1013.2 |
| 20260505024555 | 65 | 336 | 11.3 | 16.5 | 0.00 | 0.00 | 0.00 | 50 | 1013.3 |
| 20260505023043 | 65 | 323 | 10.4 | 17.4 | 0.00 | 0.00 | 0.00 | 51 | 1013.1 |
| 20260505021547 | 67 | 350 | 10.4 | 20.0 | 0.00 | 0.00 | 0.00 | 44 | 1012.7 |
| 20260505020045 | 67 | 352 | 7.8 | 14.8 | 0.00 | 0.00 | 0.00 | 42 | 1012.5 |
| 20260505014602 | 65 | 22 | 7.0 | 15.6 | 0.00 | 0.00 | 0.00 | 46 | 1012.5 |
| 20260505013043 | 66 | 19 | 10.4 | 16.5 | 0.00 | 0.00 | 0.00 | 47 | 1012.8 |
| 20260505011556 | 69 | 320 | 7.0 | 17.4 | 0.00 | 0.00 | 0.00 | 38 | 1013.3 |
| 20260505010049 | 72 | 309 | 13.0 | 21.7 | 0.00 | 0.00 | 0.00 | 29 | 1013.2 |
| 20260505004548 | 73 | 267 | 8.7 | 19.1 | 0.00 | 0.00 | 0.00 | 26 | 1012.6 |
| 20260505003048 | 74 | 300 | 12.2 | 20.9 | 0.00 | 0.00 | 0.00 | 25 | 1012.4 |
| 20260505001545 | 75 | 304 | 13.0 | 23.5 | 0.00 | 0.00 | 0.00 | 25 | 1012.5 |
| 20260505000058 | 75 | 315 | 16.5 | 27.8 | 0.00 | 0.00 | 0.00 | 24 | 1012.3 |
| 20260504234553 | 76 | 292 | 16.5 | 26.9 | 0.00 | 0.00 | 0.00 | 25 | 1011.8 |
| 20260504233105 | 77 | 297 | 13.0 | 26.1 | 0.00 | 0.00 | 0.00 | 23 | 1011.5 |
| 20260504231550 | 78 | 292 | 13.9 | 28.7 | 0.00 | 0.00 | 0.00 | 21 | 1011.4 |
| 20260504230053 | 78 | 264 | 18.2 | 27.8 | 0.00 | 0.00 | 0.00 | 20 | 1011.4 |
| 20260504224556 | 79 | 302 | 16.5 | 26.9 | 0.00 | 0.00 | 0.00 | 20 | 1011.4 |
| 20260504223110 | 79 | 273 | 17.4 | 28.7 | 0.00 | 0.00 | 0.00 | 20 | 1011.2 |
| 20260504221547 | 81 | 297 | 12.2 | 20.9 | 0.00 | 0.00 | 0.00 | 17 | 1011.1 |
| 20260504220050 | 81 | 296 | 15.6 | 26.1 | 0.00 | 0.00 | 0.00 | 17 | 1011.0 |
| 20260504214546 | 81 | 316 | 12.2 | 21.7 | 0.00 | 0.00 | 0.00 | 17 | 1011.1 |
| 20260504213053 | 83 | 296 | 12.2 | 20.0 | 0.00 | 0.00 | 0.00 | 18 | 1011.0 |
| 20260504211549 | 83 | 310 | 8.7 | 17.4 | 0.00 | 0.00 | 0.00 | 16 | 1010.7 |